Location: ???? ?????????
(44.3677°N, 135.2344°E)
Time: 03:08:14
(UTC+00:00)

Cosmos 1633 Rocket - Pass Details

Date: 19 May 2025
Orbit: 600 x 618 km, 82.5° (Epoch: 14 June)

Event Time Altitude Azimuth Distance (km) Brightness Sun altitude
Rises 14:49:48 0° 359° (N) 2,879 7.9 -25.7°
Reaches altitude 10° 14:52:10 10° 8° (N) 1,967 6.6 -25.7°
Enters shadow 14:56:09 37° 74° (ENE) 954 4.1 -25.7°
